Tracking 26218 objects as of 26-Sep-2022
HD Live streaming from Space Station
objects crossing your sky now

FLOCK 4X 33

Track FLOCK 4X 33 now!
10-day predictions


NORAD ID: 51055
Int'l Code: 2022-002BZ
Perigee: 517.6 km
Apogee: 531.4 km
Inclination: 97.5 °
Period: 95.0 minutes
Semi major axis: 6895 km
RCS: Unknown
Launch date: January 13, 2022
Source: United States (US)
Launch site: AIR FORCE EASTERN TEST RANGE (AFETR)
aabbcc
Your satellite tracking list
Your tracking list is empty




NASA's NSSDC Master Catalog

Two Line Element Set (TLE):
1 51055U 22002BZ  22268.73717149  .00011057  00000-0  57512-3 0  9998
2 51055  97.4797 334.3340 0010009  88.6591 271.5788 15.16178051 38608
Source of the keplerian elements: AFSPC